Lid_Strength_Index
0 -0 -0 -0 -1 -1 -1 -1 -2 -2 -2 -1 0 1 2 2 3 5 9 5 2 -1 -0 2 3 3 1 3 3 3 8 11 10 10 8 6 6 5 4 5 5 4 4 3 2
1 0 0 -0 -1 -1 -1 -1 -2 -2 -2 -2 -1 -1 -0 0 3 6 3 2 1 -1 3 4 6 3 4 4 4 6 9 9 7 7 7 6 6 5 6 6 5 5 3 2 2
1 1 1 0 -0 -0 -1 -1 -2 -2 -2 -2 -1 -1 -0 1 6 8 1 1 0 0 0 1 2 3 6 5 5 6 8 7 7 6 6 6 6 5 6 7 5 5 4 3 3
2 1 1 1 1 0 -0 -1 -1 -1 -2 -1 -1 -1 -0 3 12 4 1 -0 -1 1 1 2 3 5 6 7 5 8 6 6 6 6 6 7 5 6 5 5 4 4 3 3 3
2 2 2 1 1 1 1 0 -1 -1 -1 -1 -1 -1 3 6 6 3 2 -1 0 3 4 4 5 5 7 6 6 8 7 6 6 6 6 6 6 6 6 4 4 4 4 3 3
1 1 2 2 2 2 1 1 0 -1 -1 -1 -1 0 5 8 3 3 2 -0 1 3 5 3 5 4 6 6 7 6 6 6 6 6 6 7 6 6 5 3 4 4 4 3 3
1 1 2 2 2 2 2 1 0 -0 -1 -1 -1 2 6 6 3 3 3 3 0 2 4 2 2 4 5 7 5 6 8 7 7 6 7 6 8 8 4 4 4 4 4 3 3
1 1 1 2 2 2 1 1 1 0 -1 -1 -1 2 7 2 3 4 4 4 0 1 2 1 2 4 5 5 7 8 8 11 8 7 6 6 10 7 4 4 5 4 4 3 3
1 1 2 2 2 2 1 1 1 0 -0 -1 2 4 7 2 5 3 3 5 3 2 1 1 2 5 6 8 10 9 13 11 11 7 7 8 10 7 5 5 5 4 4 4 3
1 1 2 2 2 2 1 1 1 1 1 1 2 6 6 7 4 3 3 4 4 3 4 5 6 8 8 10 15 13 13 12 11 9 8 9 9 7 6 6 5 5 4 4 4
0 1 1 2 2 2 2 2 5 6 4 7 7 7 6 5 4 5 4 5 4 5 9 7 10 13 11 9 11 12 11 12 10 9 9 9 9 8 6 6 6 6 5 5 5
-0 0 1 1 2 1 2 6 5 4 8 4 6 6 5 5 8 7 4 7 7 10 8 9 12 10 10 9 10 12 13 13 11 9 9 10 10 8 7 7 6 6 6 6 5
-0 0 1 1 1 2 3 5 1 2 8 6 5 6 5 5 8 8 6 6 8 10 10 12 11 9 10 10 11 11 13 13 13 10 9 10 12 11 8 7 7 6 6 5 6
-1 -0 -0 1 3 3 5 2 1 2 12 10 8 6 6 5 8 5 5 6 7 10 9 10 9 10 11 12 11 14 10 10 12 12 15 11 17 12 11 11 9 7 7 6 6
-2 -1 -0 0 4 5 4 1 0 4 19 9 8 3 4 7 8 8 5 6 9 9 9 12 11 11 12 11 10 12 9 10 11 12 13 13 15 14 11 12 10 8 6 5 5
-1 -1 -2 1 2 3 1 1 3 13 19 12 8 9 9 7 8 8 7 6 6 9 8 10 8 9 10 9 9 8 10 11 11 12 17 14 14 15 13 13 11 8 7 6 6
-1 -1 -1 -1 4 1 1 4 13 17 10 13 12 9 10 11 10 9 10 11 12 15 15 11 10 9 9 11 9 9 12 17 18 18 18 14 15 15 12 11 11 10 8 7 6
-2 -1 -1 -1 -2 -1 2 9 17 12 12 10 10 10 12 9 10 10 11 13 10 10 12 15 17 11 9 11 12 11 12 16 20 19 17 13 17 15 10 9 9 8 8 7 7
-1 0 1 -0 -2 -0 6 14 14 11 10 11 10 13 13 10 10 11 12 12 11 10 13 14 14 9 8 8 8 12 14 11 15 16 16 15 14 12 10 10 9 7 7 7 8
1 2 2 -1 -1 3 9 12 11 9 8 8 13 12 15 13 13 13 13 9 11 9 7 10 14 10 9 8 8 9 8 15 13 18 19 17 15 16 12 10 9 8 7 8 9
2 6 2 -1 0 7 12 11 10 8 8 10 11 12 12 13 12 13 12 9 8 9 8 9 11 13 10 12 12 12 13 12 12 13 17 18 16 11 11 9 8 7 6 8 9
4 9 1 0 9 8 11 9 7 9 7 9 9 10 11 11 12 12 12 10 7 7 11 9 11 14 13 9 8 9 11 12 15 16 14 13 14 10 9 8 7 7 7 8 9
6 6 1 2 12 11 9 9 8 9 9 10 11 9 8 11 14 12 10 7 7 8 10 9 13 17 16 12 10 12 11 11 11 12 16 18 14 8 8 8 8 8 9 9 10
6 10 7 6 7 9 10 11 11 7 8 8 9 9 10 10 10 12 12 8 7 7 7 7 11 14 16 13 11 14 12 11 12 16 15 14 12 9 9 8 8 8 9 10 10
7 9 7 11 9 9 9 9 11 11 8 8 10 10 11 13 11 12 10 10 8 7 8 9 14 12 11 10 10 11 12 12 13 13 15 13 12 9 7 8 8 8 9 10 11
9 9 8 10 9 9 9 10 10 9 10 11 11 9 10 12 11 13 10 10 11 8 9 9 14 13 15 11 11 13 11 11 11 12 12 11 11 7 6 6 8 9 10 11 11
6 4 5 8 9 10 10 10 9 8 7 7 8 9 10 10 8 10 7 7 9 10 11 11 13 14 17 12 13 16 13 12 11 10 10 13 10 7 7 8 8 9 10 10 11